RH
96 98 98 94 89 86 84 93 84 89 93 96 97 97 93 97 96 95 94 92 89 87 84 78 81 93 95 95 96 78 71 72 80 80 80 80 83 76 83 81 86 85 89
99 100 100 99 96 90 85 86 87 93 91 94 96 98 97 96 97 96 96 95 94 91 90 89 84 79 89 95 97 84 76 73 66 77 83 82 78 79 80 81 85 92 84
97 100 100 99 98 98 99 99 98 100 100 100 97 97 97 96 96 96 96 96 96 95 94 94 94 93 83 81 83 80 75 80 68 59 72 78 79 77 79 80 81 82 92
95 99 100 100 99 99 100 100 99 99 99 99 99 100 99 100 100 99 98 97 96 96 96 95 95 94 88 79 68 71 70 72 78 77 65 70 75 77 77 78 81 80 84
81 92 100 99 98 98 99 99 100 99 100 99 100 99 99 98 100 100 100 100 99 98 98 97 95 91 90 82 94 93 59 64 67 69 71 77 80 74 80 74 82 79 82
72 86 99 100 100 100 100 100 99 100 100 100 100 98 98 98 99 99 98 98 98 96 97 100 98 92 90 89 91 93 74 67 55 52 59 67 73 70 78 93 71 75 84
70 72 92 100 99 100 100 98 98 97 93 88 92 97 99 100 99 99 99 99 98 100 99 97 97 87 92 90 93 90 84 79 78 64 57 55 58 60 67 93 94 71 75
68 71 71 85 98 99 98 95 85 74 70 62 61 63 68 74 82 77 85 88 92 96 98 97 94 78 85 97 93 88 88 83 79 68 65 62 63 61 82 93 83 80 71
70 69 66 63 63 69 76 75 71 64 61 59 57 57 59 63 64 66 66 69 69 69 69 70 70 74 82 90 91 90 87 86 86 77 80 64 64 64 89 96 92 83 85
61 60 60 61 55 54 51 58 57 56 54 52 52 51 50 50 50 52 57 57 60 62 64 65 65 67 68 75 79 81 83 86 83 84 80 80 76 60 89 91 96 87 84
52 57 59 56 54 44 45 41 43 43 41 37 35 35 33 35 39 39 35 38 40 43 45 50 54 59 60 62 68 70 77 77 77 79 83 91 91 89 80 90 91 95 86
47 46 48 48 46 42 37 37 30 29 28 28 25 25 24 25 24 26 23 20 22 22 27 30 33 38 39 46 52 54 65 70 75 75 76 85 84 92 98 92 62 80 90
46 43 42 38 35 35 35 31 28 27 28 28 24 24 25 24 24 25 26 28 25 19 25 24 24 26 26 33 34 38 43 49 60 68 72 77 71 74 97 99 98 64 62
43 41 39 36 34 36 35 32 30 29 29 29 28 23 24 23 23 24 24 27 27 28 27 26 24 24 23 24 24 24 26 32 42 50 59 66 65 66 65 90 99 96 85
38 40 40 37 36 34 32 34 32 31 30 30 28 26 28 27 25 28 27 27 29 30 29 27 25 24 22 24 21 19 19 24 28 34 37 41 45 49 56 63 79 98 96
38 40 41 38 36 32 35 34 35 34 33 33 34 35 36 34 31 32 30 30 32 32 33 32 29 28 25 24 21 18 19 23 22 20 21 24 28 37 42 45 58 84 97
40 43 38 36 30 35 35 34 33 36 35 34 34 36 35 38 37 34 34 32 34 35 34 33 31 31 27 26 23 21 21 21 20 17 16 18 24 36 43 50 49 65 84
40 39 38 36 33 29 32 34 34 36 35 35 35 34 37 38 40 36 37 36 38 36 36 36 32 32 31 28 27 26 25 20 18 17 18 17 19 20 23 28 51 63 61
38 40 41 38 37 35 34 37 38 39 35 34 33 35 37 37 39 38 38 39 40 39 36 36 34 34 33 31 31 29 25 24 24 20 18 16 19 23 25 36 47 59 52
37 39 41 40 40 35 36 37 34 33 35 37 34 36 36 35 38 38 39 40 42 39 37 38 38 38 38 36 36 31 27 28 24 22 24 34 40 60 71 69 69 69 83
40 36 39 41 40 39 38 32 30 32 34 34 40 40 38 38 41 39 38 39 41 41 41 41 41 42 40 40 41 34 28 23 19 17 31 25 32 47 44 42 62 68 68
39 38 38 40 40 40 40 41 39 38 37 41 37 38 38 36 39 40 43 43 43 43 42 43 44 46 43 41 42 39 26 21 31 31 26 22 27 24 29 27 40 42 39
37 38 40 41 42 41 43 41 37 33 29 28 33 36 41 43 46 48 50 48 47 49 49 49 49 49 47 45 44 46 37 24 36 25 25 22 22 27 25 23 29 33 32
36 45 44 43 42 41 43 39 36 33 32 34 39 41 40 43 48 52 54 53 52 52 52 52 49 54 55 50 47 44 45 43 43 39 24 29 31 29 30 32 30 29 28
42 44 42 44 43 44 43 41 37 35 36 39 38 38 38 39 44 47 51 51 51 52 53 54 56 55 55 55 53 52 50 47 44 43 45 35 31 31 31 33 34 33 32
43 43 43 42 43 42 42 41 41 40 38 36 36 36 37 38 40 43 47 50 52 53 55 57 58 59 58 57 57 56 54 52 48 45 42 42 41 40 38 39 37 37 36
Wind_Speed
24 29 28 13 10 11 13 15 16 17 17 17 16 16 16 16 17 18 18 19 19 18 18 18 17 15 15 14 15 15 14 13 13 11 9 7 6 5 6 7 7 8 10
18 24 28 22 22 16 15 17 17 17 17 17 17 17 18 17 17 17 17 18 18 17 17 16 16 15 14 13 13 15 14 13 10 11 10 9 6 4 3 3 4 5 8
17 26 28 23 23 21 24 23 22 21 20 21 19 18 17 18 18 18 18 18 17 17 16 16 15 15 14 12 11 12 13 14 10 8 11 7 7 6 3 1 1 3 6
15 23 26 23 24 25 24 24 23 24 24 23 22 24 23 22 21 20 19 18 17 16 15 15 14 14 13 13 13 11 10 11 10 10 7 7 7 6 4 2 1 2 3
12 17 26 21 22 22 22 23 23 23 22 22 22 23 21 21 22 21 21 20 19 18 17 15 14 13 12 12 12 12 10 9 8 8 7 6 5 6 6 5 3 2 3
11 12 21 21 21 22 21 22 23 23 23 23 23 22 22 22 22 21 20 19 19 18 18 17 16 13 12 11 11 11 12 12 9 8 7 7 6 7 8 7 7 6 5
10 11 12 18 19 21 22 22 22 22 21 21 21 22 22 23 22 22 22 21 20 21 20 19 18 14 13 11 10 10 10 11 10 9 9 9 8 9 9 9 9 8 7
9 11 12 15 18 19 21 21 19 19 18 17 17 16 17 18 19 18 19 19 18 19 19 19 18 14 12 12 11 10 10 10 9 9 9 10 12 11 11 11 11 11 9
12 11 11 12 14 16 17 17 17 17 17 17 17 16 16 16 16 16 16 17 16 16 16 16 15 15 13 12 10 10 11 11 9 8 9 8 12 13 13 12 12 12 11
13 12 13 11 12 13 15 16 16 17 17 16 16 16 15 16 16 16 15 16 15 14 14 14 14 14 14 12 12 13 13 12 10 10 10 9 12 12 13 14 13 11 13
13 14 14 13 13 13 14 16 16 17 17 17 18 18 18 17 17 17 17 15 15 15 15 15 15 15 14 14 15 14 14 12 13 11 10 12 13 13 12 13 15 14 15
13 14 14 13 14 13 13 14 16 17 18 19 20 19 18 17 18 17 18 17 17 17 17 18 18 17 17 16 15 16 13 15 13 14 12 16 14 14 15 15 15 16 17
11 13 13 14 15 14 14 14 14 15 16 17 21 20 17 16 17 17 17 19 19 21 20 20 18 17 17 16 16 15 16 15 14 14 15 20 18 17 16 17 17 18 18
12 13 13 14 14 15 13 14 14 16 15 16 18 20 18 17 17 17 17 17 17 18 19 18 17 18 17 16 15 16 16 16 16 17 18 21 22 22 21 19 18 19 20
12 11 12 13 13 13 15 13 14 15 14 14 17 19 18 17 17 16 16 16 17 17 18 18 19 19 19 18 18 18 18 18 18 17 19 22 25 25 25 24 21 20 21
10 10 10 11 12 13 13 14 12 12 13 14 15 17 17 16 16 15 16 17 17 18 19 18 19 19 19 20 21 20 21 20 19 20 20 22 25 27 26 26 25 22 21
9 8 9 10 10 11 12 11 12 12 12 13 13 15 16 17 17 16 15 15 17 18 19 19 20 20 21 21 22 22 22 22 23 23 22 22 23 24 25 25 26 24 22
9 9 9 9 10 10 10 11 10 12 11 13 13 13 17 17 18 16 16 17 19 17 18 19 21 23 22 23 24 25 25 25 26 25 24 23 22 23 24 25 23 24 25
8 8 8 8 9 9 8 8 9 10 10 10 12 13 15 15 17 17 15 17 20 19 19 20 21 21 24 25 25 26 27 25 26 27 26 25 23 21 20 22 24 24 25
8 7 7 7 8 7 6 5 6 7 9 9 11 13 14 14 16 15 14 17 18 18 19 20 22 22 23 25 27 27 23 27 24 23 20 18 16 15 12 12 14 14 16
8 6 6 6 7 7 7 5 5 8 8 9 11 13 14 15 16 16 15 15 15 16 18 19 20 22 23 23 27 29 24 20 16 16 13 15 14 12 13 13 11 11 11
9 7 6 5 6 7 7 7 5 8 7 8 12 13 14 16 15 14 15 16 16 18 18 18 19 21 21 20 18 24 8 21 5 18 26 19 15 16 16 17 16 17 16
11 8 6 5 5 6 7 6 7 5 8 8 13 13 14 14 14 14 14 14 15 15 16 18 18 18 22 21 16 10 7 6 23 12 18 24 17 19 23 23 21 21 22
13 10 7 5 4 4 6 6 8 8 10 10 12 14 16 14 14 14 14 15 15 16 17 17 17 19 18 20 19 15 19 23 7 12 11 22 29 26 23 23 24 26 25
14 11 7 5 3 3 5 6 7 8 9 11 13 15 16 15 15 15 15 17 17 18 19 20 20 20 20 22 21 21 21 24 24 20 17 20 25 25 26 28 28 27 26
13 10 7 4 2 3 4 5 6 8 10 12 14 15 15 16 17 17 18 18 19 19 20 21 22 23 23 24 24 24 25 22 20 23 14 20 21 28 29 27 28 28 26
Wind_Direction
4 25 27 46 65 69 69 68 66 63 67 68 64 65 70 68 61 57 54 51 50 47 46 47 46 47 44 46 45 43 41 43 46 51 58 77 74 69 110 112 99 104 103
353 19 28 51 56 59 67 67 67 62 61 61 61 61 59 55 54 55 53 50 47 45 43 43 43 42 40 41 39 37 39 37 46 46 55 41 56 73 84 111 115 118 113
11 30 31 47 57 54 56 59 57 56 56 56 53 53 54 56 53 50 46 44 42 39 35 35 35 35 35 33 33 33 35 39 45 41 42 29 47 40 46 67 144 156 119
28 39 36 47 54 56 56 55 53 57 57 58 57 55 55 53 51 50 47 42 39 36 31 28 25 24 24 25 24 18 23 30 32 37 25 20 20 9 13 347 311 211 143
38 43 42 48 54 55 57 57 56 57 56 57 58 56 54 52 51 48 48 44 40 37 32 26 21 16 13 15 12 9 6 0 3 13 10 11 2 330 347 329 317 234 196
39 57 56 51 54 58 58 57 57 58 56 56 57 58 55 52 50 46 44 40 36 32 28 25 23 16 11 6 3 359 354 351 360 335 332 332 345 329 325 316 294 273 253
43 50 56 53 53 56 58 58 58 58 59 59 57 55 53 51 48 45 40 39 35 32 30 25 21 16 13 6 2 352 345 344 343 333 326 318 313 316 324 331 284 270 251
59 59 57 54 59 57 57 57 59 60 59 60 59 55 50 49 46 44 41 36 33 30 28 25 22 18 17 12 2 349 339 331 338 325 322 317 308 317 323 316 307 259 249
63 61 54 53 49 49 60 58 58 59 56 52 54 48 43 40 39 36 35 34 30 25 20 17 16 16 13 6 359 351 342 333 327 311 315 312 299 312 320 320 319 252 252
60 57 53 52 54 50 49 56 55 54 52 48 47 46 41 37 34 30 27 25 20 17 12 8 5 3 4 1 356 349 348 355 330 318 310 302 302 300 312 312 311 283 250
53 55 54 49 51 51 51 49 50 51 49 45 42 44 38 34 30 26 26 20 14 10 5 2 358 354 351 348 347 349 0 340 334 319 314 302 314 307 293 298 300 298 267
53 47 52 52 59 58 55 51 47 48 47 42 38 36 34 30 26 24 17 15 13 9 5 3 360 359 359 354 344 348 340 333 329 322 313 308 316 311 312 291 274 285 286
69 61 57 59 61 60 55 52 48 44 41 37 36 33 28 26 20 17 13 9 7 5 3 0 359 358 354 350 343 337 330 326 317 310 305 306 309 312 311 306 292 268 274
72 64 59 62 62 62 62 58 54 50 44 40 33 31 26 22 17 14 11 6 4 0 356 354 350 344 342 338 336 329 324 320 311 306 298 295 296 300 302 306 297 287 274
84 72 65 64 61 62 62 59 53 50 45 40 35 30 26 19 13 8 4 2 358 354 351 347 343 338 335 331 328 323 317 312 308 303 299 297 293 291 291 293 295 293 279
99 85 73 70 69 67 65 60 57 49 42 38 34 27 23 20 11 4 360 357 353 350 346 341 338 332 330 326 322 319 314 308 302 299 297 295 294 290 287 286 285 287 287
106 97 82 74 73 67 62 59 52 46 41 35 30 23 18 13 7 1 356 353 348 344 341 338 335 332 327 324 318 315 312 307 302 299 296 291 292 292 290 284 282 280 281
112 97 86 76 68 65 59 53 48 40 37 32 24 18 14 10 6 359 353 349 344 342 341 338 336 331 327 325 319 315 310 305 300 297 294 291 288 287 288 288 284 279 275
121 104 88 78 66 58 54 52 48 41 35 29 22 15 9 6 3 360 353 347 346 342 343 339 335 332 326 322 318 312 307 303 300 297 292 290 287 285 286 287 288 289 283
128 116 99 75 60 54 49 46 40 27 24 20 16 10 5 0 359 357 349 346 344 339 337 337 333 330 326 322 318 311 306 300 297 293 295 294 292 295 298 303 301 291 292
141 125 104 84 59 52 41 30 17 11 7 6 4 0 359 356 353 352 345 341 339 334 329 328 328 327 326 327 323 320 310 298 293 292 302 303 297 300 310 317 315 313 307
159 141 116 90 63 50 39 26 12 351 349 347 349 349 350 348 345 343 337 332 331 327 326 327 327 324 321 326 322 316 324 318 96 318 300 291 292 298 306 312 307 308 309
170 157 134 106 78 48 32 21 8 351 343 336 339 335 334 333 334 332 328 322 319 318 315 319 319 319 315 314 314 303 314 303 324 298 310 295 290 306 303 303 301 299 302
172 159 143 120 84 45 29 18 7 354 339 329 322 322 325 325 324 322 319 318 315 313 309 308 308 306 304 300 300 287 277 284 298 307 292 299 297 294 296 300 299 298 298
167 163 152 136 101 50 26 10 354 337 321 319 320 320 321 322 321 321 321 320 316 313 309 306 304 300 294 291 292 292 284 282 279 276 291 291 291 289 292 292 293 293 293
165 163 160 145 102 32 7 346 330 321 320 318 318 319 318 319 319 320 321 318 312 309 306 304 301 296 291 286 284 282 279 278 280 283 286 291 291 292 290 287 288 288 288